Regional Weather Roundup
Issued by NWS

Home | Current Version | Previous Version | Graphics & Text | Print | Product List | Glossary On
Versions: 1 2 3 4 5 6 7 8 9 10 11 12 13 14 15 16 17 18 19 20 21 22 23 24 25 26 27 28 29 30 31 32 33 34 35 36 37 38 39 40 41 42 43 44 45 46 47 48 49 50
855
ASUS45 KCYS 240210
RWRWY

WYOMING REGIONAL WEATHER ROUNDUP
NATIONAL WEATHER SERVICE CHEYENNE WY
800 PM MDT MON OCT 23 2017

NOTE:  "FAIR" INDICATES FEW OR NO CLOUDS BELOW 12,000 FEET
WITH NO SIGNIFICANT WEATHER AND/OR OBSTRUCTIONS TO VISIBILITY.

WYZ001-240300-
YELLOWSTONE NATIONAL PARK

CITY           SKY/WX    TMP DP  RH WIND       PRES   REMARKS
LK YELLOWSTONE   N/A     27  20  75 NW3       30.68R
W YELLOWSTONE  NOT AVBL

$$
WYZ002>013-054>058-071-098>099-240300-
NORTHERN WYOMING

CITY           SKY/WX    TMP DP  RH WIND       PRES   REMARKS
JACKSON        FAIR      36  21  54 NE5       30.66R WCI  32
CODY           FAIR      44  16  32 NW6       30.59R
GREYBULL       FAIR      48  18  30 NW9       30.54R
WORLAND        FAIR      37  19  48 CALM      30.55R
SHERIDAN       FAIR      42  22  44 W10       30.56R
BUFFALO        FAIR      45  16  31 NW17      30.56R
GILLETTE       FAIR      44  18  35 NW16      30.50R
HULETT         FAIR      45  19  36 NW15G23   30.49R
NEWCASTLE      FAIR      41  18  38 NW10      30.48R

$$
WYZ014>020-022>026-101>103-240300-
CENTRAL WYOMING

CITY           SKY/WX    TMP DP  RH WIND       PRES   REMARKS
BIG PINEY      FAIR      37  15  40 N10       30.62R WCI  30
PINEDALE       FAIR      36  19  51 NW14      30.62R WCI  27
DUBOIS         FAIR      36  19  51 W15       30.62R WCI  26
LANDER         FAIR      42  20  41 W9        30.57R
RIVERTON       FAIR      42  18  37 N5        30.57R
CASPER         FAIR      36  15  42 VRB3      30.56R
DOUGLAS        FAIR      42  18  37 N15       30.53R

$$
WYZ021-027>030-104>119-240300-
SOUTHERN WYOMING

CITY           SKY/WX    TMP DP  RH WIND       PRES   REMARKS
EVANSTON       FAIR      43  21  41 N5        30.66R
KEMMERER       FAIR      37  21  52 W8        30.66R WCI  31
FORT BRIDGER   FAIR      40  20  45 W12       30.67R WCI  32
ROCK SPRINGS   FAIR      45  15  30 W12       30.59R
DIXON          FAIR      37  24  60 CALM      30.58R
RAWLINS        FAIR      34  13  41 N9        30.56R WCI  27
SARATOGA       FAIR      32  18  55 NW5       30.58R WCI  27
LARAMIE        FAIR      29  15  56 NW10      30.55R WCI  20
CHEYENNE       FAIR      41  12  30 N9        30.50R
TORRINGTON     FAIR      45  16  31 N8        30.46R
PINE BLUFFS    FAIR      32  19  59 MISG      30.48R

$$




USA.gov is the U.S. government's official web portal to all federal, state and local government web resources and services.